[[{"header":{"parameterUnit":"m.s-1","parameterCategory":2,"la1":30.2992,"la2":30.254,"lo1":-89.0895,"lo2":-89.0443,"dy":0.0025,"dx":0.0025,"nx":19,"ny":19,"refTime":"2026-03-23T03:00:00:Z","depth":"0","parameterNumber":2,"parameterNumberName":"U-component_of_CURRENTS"},"data":[0,0,0,0.2621,0.2623,0.2678,0.2678,0.2828,0.2829,0,0,0,0,0,0,0,0,0,0,0,0.2619,0.2619,0.2621,0.2623,0.2678,0.2678,0.2828,0.2829,0,0,0,0,0,0,0,0,0,0,0,0.2618,0.2619,0.262,0.2623,0.2678,0.2678,0.2827,0.2766,0,0,0,0,0,0,0,0,0,0,0.2703,0.2656,0.2619,0.262,0.2623,0.2678,0.2678,0.2762,0.277,0.2825,0,0.2846,0,0.2837,0.2841,0.2842,0,0,0,0.2624,0.2649,0.2695,0.262,0.2624,0.2678,0.2654,0.2766,0.2775,0.2835,0.2848,0.2852,0.2839,0.2842,0.2843,0.3074,0.3075,0,0,0.2621,0.2599,0.2689,0.2701,0.2657,0.2652,0.2655,0.277,0.2772,0.2848,0.2855,0.2842,0.2843,0.2845,0.3073,0.3075,0,0,0,0.2611,0.2596,0.2637,0.2696,0.2697,0.2653,0.2657,0.2766,0.2789,0.2856,0.2843,0.2844,0.2846,0.3072,0.3074,0.3128,0,0,0,0.261,0.2591,0.2636,0.2619,0.2695,0.2712,0.265,0.2781,0.2793,0.2843,0.2844,0.2848,0.307,0.3073,0.3123,0.3132,0,0,0,0.2613,0.2589,0.2609,0.2618,0.2643,0.271,0.2737,0.2783,0.2786,0.2842,0.2849,0.3069,0.3072,0.3119,0.3127,0.3131,0,0,0,0.257,0.2599,0.2609,0.2646,0.2643,0.2756,0.2736,0.2788,0.2837,0.2845,0.3071,0.3073,0.3118,0.3123,0.3128,0.2881,0.2874,0,0,0.2585,0.26,0.2628,0.2639,0.2745,0.2747,0.2865,0.2891,0.2906,0.3035,0.304,0.3125,0.3126,0.313,0.305,0.3037,0,0,0,0.262,0.2641,0.2677,0.2735,0.2821,0.291,0.2947,0.2974,0.306,0.2948,0.3169,0.3169,0.3169,0.3016,0.3008,0.2831,0.3087,0.3087,0.3086,0.2613,0.2671,0.274,0.2836,0.2918,0.3027,0.3093,0.315,0.3158,0.3202,0.3247,0.3333,0.3175,0.3165,0.2989,0.3294,0.3294,0.3294,0.3294,0.2645,0.2685,0.278,0.2857,0.2994,0.3101,0.3249,0.3262,0.3365,0.3349,0.3346,0.3123,0.3157,0.2974,0.3298,0.3298,0.3297,0.3297,0.3296,0.2614,0.2648,0.2696,0.2833,0.2973,0.3124,0.3233,0.3341,0.3394,0.3434,0.3229,0.3224,0.3027,0.3422,0.3422,0.3422,0.3422,0.3422,0.3422,0.2564,0.2624,0.2681,0.2815,0.2905,0.3046,0.3228,0.328,0.3281,0.3265,0.3263,0.3028,0.3371,0.3325,0.3424,0.3424,0.3423,0.3423,0.3423,0.254,0.2565,0.2645,0.2721,0.2896,0.2896,0.3095,0.3047,0.3106,0.3033,0.2822,0.316,0.3105,0.3108,0.3056,0.308,0.308,0.308,0.308,0.2528,0.2546,0.2637,0.2717,0.2808,0.2841,0.2678,0.2646,0.2582,0.2483,0.2589,0.2486,0.2507,0.2415,0.2434,0.2368,0.2217,0.2216,0.2215,0.2552,0.2585,0.262,0.2675,0.2755,0.2683,0.2374,0.2104,0.2044,0.2175,0.2402,0.2439,0.2289,0.2337,0.2194,0.2235,0.2128,0,0]},{"header":{"parameterUnit":"m.s-1","parameterCategory":2,"la1":30.2992,"la2":30.254,"lo1":-89.0895,"lo2":-89.0443,"dy":0.0025,"dx":0.0025,"nx":19,"ny":19,"refTime":"2026-03-23T03:00:00:Z","depth":"0","parameterNumber":3,"parameterNumberName":"V-component_of_CURRENTS"},"data":[0,0,0,0.0175,0.0176,0.0212,0.0212,0.0248,0.0248,0,0,0,0,0,0,0,0,0,0,0,0.0162,0.0163,0.0175,0.0176,0.0212,0.0212,0.0248,0.0248,0,0,0,0,0,0,0,0,0,0,0,0.0162,0.0162,0.0163,0.0176,0.0212,0.0212,0.0248,0.0222,0,0,0,0,0,0,0,0,0,0,0.0188,0.018,0.0162,0.0163,0.0176,0.0212,0.0212,0.0221,0.0224,0.023,0,0.0239,0,0.0247,0.0251,0.0251,0,0,0,0.0172,0.0178,0.0188,0.0163,0.0177,0.0212,0.0195,0.0223,0.0226,0.0234,0.024,0.0242,0.0247,0.0251,0.0251,0.0361,0.0362,0,0,0.017,0.0168,0.0186,0.019,0.0191,0.0193,0.0196,0.0225,0.023,0.024,0.0242,0.0248,0.0251,0.0252,0.036,0.0361,0,0,0,0.0167,0.0166,0.0176,0.0188,0.0197,0.0195,0.0197,0.0228,0.0232,0.0243,0.0248,0.0251,0.0252,0.0359,0.0361,0.044,0,0,0,0.0166,0.0165,0.0175,0.0173,0.0196,0.0215,0.02,0.023,0.0233,0.0248,0.0251,0.0252,0.0358,0.036,0.0435,0.0502,0,0,0,0.016,0.0164,0.017,0.0173,0.0191,0.0214,0.022,0.0231,0.0237,0.0251,0.0252,0.0357,0.036,0.0432,0.0494,0.0618,0,0,0,0.0153,0.019,0.017,0.0218,0.019,0.0231,0.0219,0.0242,0.0256,0.0252,0.0358,0.036,0.043,0.049,0.0612,0.064,0.0669,0,0,0.0202,0.0196,0.0227,0.021,0.026,0.0225,0.0292,0.0297,0.0296,0.0345,0.0347,0.0437,0.0494,0.0617,0.0766,0.0792,0,0,0,0.0245,0.0265,0.0277,0.0301,0.0309,0.0342,0.0327,0.0361,0.0426,0.0316,0.0459,0.0494,0.0569,0.0573,0.0594,0.0505,0.0371,0.037,0.037,0.0292,0.0308,0.036,0.0379,0.0398,0.042,0.048,0.0526,0.0476,0.0538,0.0574,0.0746,0.075,0.0766,0.0673,0.0574,0.0575,0.0575,0.0575,0.0371,0.0411,0.0422,0.0477,0.0497,0.0538,0.0636,0.0648,0.0784,0.0699,0.0767,0.0675,0.0794,0.0686,0.0581,0.058,0.0579,0.0578,0.0578,0.0409,0.0433,0.046,0.0527,0.0595,0.063,0.0814,0.0855,0.089,0.0959,0.0973,0.097,0.0867,0.0981,0.0982,0.0982,0.0983,0.0984,0.0984,0.0435,0.0467,0.0525,0.0587,0.0647,0.0772,0.0936,0.1058,0.113,0.1103,0.1103,0.0927,0.0871,0.0844,0.0997,0.0995,0.0993,0.0992,0.0991,0.0503,0.0492,0.0594,0.0658,0.0821,0.1016,0.1141,0.1343,0.1423,0.146,0.1178,0.1195,0.119,0.1171,0.1153,0.1378,0.1378,0.1378,0.1378,0.0526,0.0534,0.0667,0.0796,0.0976,0.1142,0.1443,0.1545,0.1461,0.1356,0.1286,0.1153,0.1141,0.1123,0.1106,0.1082,0.1284,0.1284,0.1283,0.0565,0.0604,0.071,0.0832,0.1041,0.1307,0.1564,0.1632,0.1416,0.1267,0.1165,0.1169,0.0953,0.0942,0.0887,0.087,0.0821,0,0]}],[{"header":{"parameterUnit":"m.s-1","parameterCategory":2,"la1":30.2992,"la2":30.254,"lo1":-89.0895,"lo2":-89.0443,"dy":0.0025,"dx":0.0025,"nx":19,"ny":19,"refTime":"2026-03-23T03:00:00:Z","depth":"2","parameterNumber":2,"parameterNumberName":"U-component_of_CURRENTS"},"data":[0,0,0,0.199,0.199,0.2049,0.2049,0.2189,0.219,0,0,0,0,0,0,0,0,0,0,0,0.1989,0.1989,0.199,0.199,0.2049,0.2049,0.2189,0.219,0,0,0,0,0,0,0,0,0,0,0,0.1989,0.1989,0.1989,0.199,0.2049,0.2049,0.2188,0.2135,0,0,0,0,0,0,0,0,0,0,0.2073,0.2035,0.1989,0.1989,0.199,0.2048,0.2049,0.2132,0.2138,0.2172,0,0.2176,0,0.2167,0.2198,0.2199,0,0,0,0.2018,0.2029,0.2054,0.1989,0.1991,0.2048,0.203,0.2135,0.2142,0.2181,0.2178,0.2182,0.2169,0.2199,0.22,0.2388,0.2389,0,0,0.2015,0.1995,0.2049,0.2058,0.2,0.2028,0.2032,0.2139,0.214,0.2178,0.2185,0.2172,0.22,0.2201,0.2387,0.2388,0,0,0,0.1987,0.1992,0.2014,0.2054,0.2049,0.2029,0.2033,0.2136,0.2146,0.2186,0.2173,0.2201,0.2202,0.2386,0.2388,0.2466,0,0,0,0.1986,0.1974,0.2012,0.2001,0.2046,0.2078,0.2028,0.2139,0.215,0.2173,0.2201,0.2203,0.2385,0.2387,0.2461,0.2535,0,0,0,0.1987,0.1973,0.1981,0.1999,0.2011,0.2076,0.2092,0.2141,0.2141,0.2199,0.2204,0.2384,0.2386,0.2457,0.2527,0.2475,0,0,0,0.1965,0.1972,0.198,0.2003,0.201,0.209,0.2091,0.2154,0.2207,0.2201,0.2385,0.2387,0.2455,0.2521,0.2472,0.2201,0.2194,0,0,0.1963,0.1971,0.1992,0.2001,0.2019,0.2084,0.2198,0.2257,0.2263,0.2355,0.236,0.2463,0.2526,0.2474,0.2358,0.2345,0,0,0,0.1987,0.1999,0.2001,0.2029,0.208,0.2151,0.2259,0.2307,0.2407,0.2299,0.2496,0.2535,0.2498,0.2329,0.2321,0.24,0.24,0.24,0.2399,0.1983,0.2017,0.2017,0.207,0.2145,0.2252,0.235,0.2454,0.2481,0.2541,0.2622,0.2679,0.2504,0.2494,0.2627,0.2627,0.2628,0.2628,0.2628,0.1995,0.199,0.2051,0.2073,0.2157,0.2307,0.2486,0.2547,0.2736,0.2729,0.2685,0.2453,0.2488,0.2635,0.2634,0.2633,0.2632,0.2631,0.2631,0.1975,0.1959,0.2001,0.2077,0.218,0.2346,0.2529,0.2714,0.2774,0.2854,0.2578,0.2572,0.2679,0.2797,0.2797,0.2797,0.2797,0.2797,0.2798,0.1927,0.1945,0.1985,0.207,0.2162,0.2333,0.2598,0.2704,0.2692,0.2674,0.2669,0.2735,0.2729,0.2689,0.28,0.2799,0.2799,0.2799,0.2799,0.1881,0.1907,0.1966,0.2035,0.2204,0.2222,0.2463,0.2454,0.2538,0.2421,0.2508,0.2514,0.2446,0.2449,0.2401,0.2432,0.2432,0.2431,0.2431,0.1855,0.1861,0.1951,0.2047,0.2141,0.2182,0.2058,0.2039,0.2107,0.2086,0.2102,0.2008,0.2029,0.1934,0.1949,0.189,0.1787,0.1787,0.1786,0.1843,0.186,0.1907,0.1984,0.2098,0.2017,0.175,0.1539,0.1558,0.177,0.2085,0.237,0.227,0.2288,0.2171,0.2183,0.21,0,0]},{"header":{"parameterUnit":"m.s-1","parameterCategory":2,"la1":30.2992,"la2":30.254,"lo1":-89.0895,"lo2":-89.0443,"dy":0.0025,"dx":0.0025,"nx":19,"ny":19,"refTime":"2026-03-23T03:00:00:Z","depth":"2","parameterNumber":3,"parameterNumberName":"V-component_of_CURRENTS"},"data":[0,0,0,0.0091,0.0092,0.0121,0.0121,0.0144,0.0145,0,0,0,0,0,0,0,0,0,0,0,0.0084,0.0084,0.0091,0.0092,0.0121,0.0121,0.0144,0.0145,0,0,0,0,0,0,0,0,0,0,0,0.0083,0.0084,0.0084,0.0092,0.0121,0.0121,0.0144,0.0124,0,0,0,0,0,0,0,0,0,0,0.0097,0.009,0.0084,0.0084,0.0092,0.0121,0.0121,0.0123,0.0125,0.0128,0,0.0141,0,0.0145,0.0146,0.0146,0,0,0,0.0086,0.0088,0.0101,0.0084,0.0092,0.0121,0.0106,0.0125,0.0127,0.0131,0.0141,0.0142,0.0145,0.0146,0.0147,0.0241,0.0241,0,0,0.0084,0.0082,0.01,0.0103,0.0111,0.0105,0.0107,0.0126,0.013,0.0142,0.0143,0.0145,0.0147,0.0147,0.024,0.0241,0,0,0,0.0083,0.0081,0.0093,0.0102,0.011,0.0106,0.0109,0.0129,0.0135,0.0143,0.0146,0.0147,0.0147,0.0239,0.024,0.031,0,0,0,0.0082,0.0081,0.0093,0.009,0.011,0.0121,0.0111,0.0134,0.0136,0.0146,0.0147,0.0147,0.0238,0.024,0.0306,0.0381,0,0,0,0.008,0.008,0.0088,0.009,0.0106,0.0121,0.0127,0.0134,0.0138,0.0146,0.0147,0.0237,0.0239,0.0303,0.0374,0.0477,0,0,0,0.0069,0.0104,0.0088,0.0129,0.0106,0.0139,0.0127,0.0142,0.015,0.0147,0.0238,0.024,0.0302,0.037,0.0472,0.0439,0.0461,0,0,0.011,0.0108,0.0135,0.0122,0.0165,0.0134,0.0187,0.0187,0.0186,0.0227,0.023,0.0308,0.0374,0.0476,0.0554,0.0573,0,0,0,0.0146,0.0167,0.0178,0.0199,0.0205,0.0228,0.0213,0.0244,0.03,0.0203,0.0329,0.037,0.0431,0.0401,0.0416,0.025,0.0249,0.0249,0.0249,0.0185,0.02,0.0241,0.0259,0.0273,0.0291,0.0346,0.0388,0.0344,0.04,0.044,0.0591,0.0557,0.0568,0.0432,0.0433,0.0433,0.0433,0.0433,0.0249,0.0278,0.0288,0.0332,0.0346,0.0378,0.0471,0.0487,0.0631,0.0554,0.0609,0.0493,0.0589,0.0439,0.0438,0.0437,0.0437,0.0436,0.0436,0.0278,0.0294,0.0317,0.0368,0.0418,0.0444,0.0634,0.0688,0.0719,0.0797,0.0761,0.0758,0.0658,0.0806,0.0807,0.0807,0.0808,0.0809,0.0809,0.0291,0.0318,0.0369,0.0411,0.046,0.0581,0.0755,0.0883,0.0925,0.0885,0.0883,0.0718,0.0706,0.0682,0.0821,0.0819,0.0818,0.0816,0.0816,0.0333,0.0336,0.0432,0.0487,0.0635,0.0833,0.0954,0.112,0.1195,0.119,0.0942,0.0935,0.0926,0.091,0.0892,0.1079,0.1079,0.1079,0.1079,0.0347,0.0357,0.0505,0.0631,0.0817,0.0967,0.1238,0.1254,0.1177,0.1057,0.1058,0.093,0.0919,0.0902,0.0887,0.0865,0.1045,0.1045,0.1045,0.0365,0.0421,0.0539,0.0676,0.089,0.1154,0.1342,0.1253,0.1048,0.1043,0.1048,0.1078,0.0883,0.0869,0.0831,0.0812,0.0771,0,0]}],[{"header":{"parameterUnit":"m.s-1","parameterCategory":2,"la1":30.2992,"la2":30.254,"lo1":-89.0895,"lo2":-89.0443,"dy":0.0025,"dx":0.0025,"nx":19,"ny":19,"refTime":"2026-03-23T03:00:00:Z","depth":"4","parameterNumber":2,"parameterNumberName":"U-component_of_CURRENTS"},"data":[0,0,0,0.0764,0.0768,0.0893,0.0893,0.0947,0.0948,0,0,0,0,0,0,0,0,0,0,0,0.0683,0.0684,0.0763,0.0768,0.0893,0.0893,0.0947,0.0948,0,0,0,0,0,0,0,0,0,0,0,0.0682,0.0683,0.0684,0.0769,0.0893,0.0893,0.0947,0.0871,0,0,0,0,0,0,0,0,0,0,0.0759,0.0744,0.0683,0.0684,0.077,0.0892,0.0893,0.0868,0.0876,0.0872,0,0.0892,0,0.0952,0.0952,0.0953,0,0,0,0.0734,0.0738,0.0753,0.0685,0.0771,0.0892,0.0827,0.0873,0.0881,0.0881,0.0894,0.0898,0.0953,0.0953,0.0953,0.0992,0.0992,0,0,0.0727,0.0722,0.0747,0.0758,0.0804,0.0823,0.0831,0.0879,0.0897,0.0894,0.0901,0.0954,0.0953,0.0954,0.0992,0.0992,0,0,0,0.073,0.0718,0.0733,0.0754,0.0803,0.0827,0.0837,0.0894,0.0894,0.0902,0.0955,0.0954,0.0954,0.0992,0.0992,0.1068,0,0,0,0.0724,0.0722,0.073,0.0731,0.0803,0.0877,0.0851,0.0889,0.0899,0.0955,0.0954,0.0955,0.0992,0.0992,0.1066,0.0999,0,0,0,0.0677,0.072,0.0728,0.073,0.0803,0.0877,0.088,0.0892,0.0933,0.0953,0.0955,0.0993,0.0992,0.1065,0.0999,0.1165,0,0,0,0.0673,0.0695,0.0728,0.0746,0.0802,0.0824,0.0881,0.0927,0.0942,0.0954,0.0992,0.0992,0.1064,0.0999,0.1162,0.097,0,0,0,0.0691,0.0698,0.0695,0.0728,0.0761,0.0804,0.0825,0.0891,0.0936,0.0964,0.0966,0.1067,0.0999,0.1164,0.0961,0,0,0,0,0.0691,0.0693,0.0706,0.0732,0.0756,0.0789,0.085,0.0912,0.1011,0.0956,0.1042,0.0993,0.1099,0.0976,0.0991,0.0992,0.0992,0.0992,0.0992,0.0676,0.0675,0.0672,0.068,0.0694,0.078,0.0833,0.0918,0.0975,0.1056,0.1043,0.1178,0.1047,0.1078,0.1079,0.1079,0.1079,0.108,0.108,0.0633,0.0607,0.0608,0.0618,0.0648,0.067,0.0818,0.0928,0.1091,0.1079,0.1186,0.104,0.1087,0.1085,0.1084,0.1084,0.1083,0.1083,0.1082,0.0592,0.0583,0.0591,0.0559,0.0591,0.0655,0.0779,0.0921,0.1121,0.1192,0.1178,0.1235,0.1252,0.1329,0.1329,0.1329,0.133,0.133,0.133,0.0544,0.055,0.0515,0.0516,0.051,0.0599,0.0796,0.0919,0.1104,0.1162,0.1236,0.1262,0.1254,0.1266,0.1337,0.1336,0.1335,0.1335,0.1334,0.046,0.0498,0.0441,0.0426,0.0421,0.0501,0.0721,0.093,0.1096,0.1175,0.121,0.1214,0.1176,0.1171,0.1178,0.1228,0.1225,0.1223,0,0.0397,0.0408,0.0344,0.0294,0.0296,0.0429,0.0627,0.0797,0.0982,0.0975,0.1088,0.1118,0.1123,0.1066,0.1059,0.1058,0,0,0,0.0283,0.0321,0.0241,0.0231,0.0219,0.0444,0.0678,0.0736,0.0973,0.0999,0.1169,0.1183,0.1137,0.1358,0.1311,0.1301,0.1318,0,0]},{"header":{"parameterUnit":"m.s-1","parameterCategory":2,"la1":30.2992,"la2":30.254,"lo1":-89.0895,"lo2":-89.0443,"dy":0.0025,"dx":0.0025,"nx":19,"ny":19,"refTime":"2026-03-23T03:00:00:Z","depth":"4","parameterNumber":3,"parameterNumberName":"V-component_of_CURRENTS"},"data":[0,0,0,0.0177,0.0177,0.0205,0.0205,0.025,0.025,0,0,0,0,0,0,0,0,0,0,0,0.0187,0.0187,0.0177,0.0177,0.0205,0.0205,0.025,0.025,0,0,0,0,0,0,0,0,0,0,0,0.0186,0.0187,0.0187,0.0177,0.0205,0.0205,0.025,0.0229,0,0,0,0,0,0,0,0,0,0,0.0202,0.0185,0.0187,0.0187,0.0177,0.0205,0.0205,0.0228,0.0231,0.0236,0,0.0247,0,0.0236,0.0252,0.0252,0,0,0,0.019,0.0183,0.0206,0.0187,0.0177,0.0205,0.0196,0.023,0.0232,0.0238,0.0248,0.0249,0.0237,0.0252,0.0252,0.0302,0.0302,0,0,0.0188,0.0176,0.0204,0.0208,0.0194,0.0195,0.0197,0.0231,0.0229,0.0248,0.0249,0.0237,0.0252,0.0253,0.0302,0.0302,0,0,0,0.0175,0.0174,0.0196,0.0206,0.0203,0.0195,0.0197,0.0228,0.024,0.025,0.0238,0.0253,0.0253,0.0301,0.0302,0.0334,0,0,0,0.0175,0.0166,0.0196,0.0186,0.0203,0.0208,0.0193,0.0238,0.0241,0.0238,0.0253,0.0253,0.0301,0.0302,0.0332,0.0362,0,0,0,0.0183,0.0166,0.0176,0.0186,0.0192,0.0207,0.0221,0.0239,0.0233,0.0252,0.0253,0.0301,0.0302,0.0331,0.0359,0.04,0,0,0,0.0161,0.0181,0.0176,0.0199,0.0191,0.0236,0.022,0.0243,0.0262,0.0253,0.0301,0.0302,0.033,0.0357,0.0398,0.0356,0,0,0,0.0176,0.0182,0.02,0.0197,0.0255,0.0232,0.0269,0.028,0.0275,0.0292,0.0293,0.0333,0.0359,0.04,0.0401,0,0,0,0,0.0199,0.0219,0.0234,0.0266,0.0289,0.0313,0.0306,0.0301,0.0319,0.0286,0.0339,0.0355,0.038,0.0349,0.0306,0.0306,0.0305,0.0305,0.0305,0.0214,0.0246,0.0291,0.0333,0.0355,0.0367,0.0375,0.0369,0.0352,0.0361,0.0385,0.0446,0.0413,0.0381,0.0381,0.0381,0.0381,0.0381,0.0382,0.0262,0.0294,0.0336,0.0392,0.0426,0.0459,0.0458,0.0443,0.045,0.0421,0.0443,0.0389,0.0385,0.0384,0.0384,0.0383,0.0383,0.0383,0.0383,0.0268,0.0292,0.0334,0.0424,0.0498,0.0529,0.0571,0.0546,0.0515,0.0516,0.0499,0.0481,0.0475,0.0535,0.0536,0.0536,0.0536,0.0537,0.0537,0.026,0.0305,0.037,0.0462,0.054,0.0617,0.0645,0.0627,0.0588,0.055,0.0544,0.0498,0.0493,0.0485,0.0542,0.0541,0.054,0.054,0.0539,0.0276,0.0291,0.0391,0.0471,0.0634,0.0686,0.0721,0.0667,0.065,0.061,0.0562,0.056,0.0552,0.0546,0.0538,0.0613,0.0613,0.0613,0,0.0279,0.0293,0.043,0.0552,0.0666,0.073,0.0716,0.0686,0.0626,0.0631,0.0647,0.0596,0.0592,0.0584,0.0578,0.0571,0,0,0,0.0302,0.0342,0.0432,0.0548,0.0694,0.0696,0.0708,0.0683,0.0652,0.0588,0.0605,0.0607,0.0537,0.0556,0.0538,0.0532,0.0518,0,0]}]]